Regional Weather Roundup
Issued by NWS

Home | Current Version | Previous Version | Graphics & Text | Print | Product List | Glossary On
Versions: 1 2 3 4 5 6 7 8 9 10 11 12 13 14 15 16 17 18 19 20 21 22 23 24 25 26 27 28
000
ASUS45 KSLC 201510
RWRUT

UTAH REGIONAL WEATHER ROUNDUP
NATIONAL WEATHER SERVICE SALT LAKE CITY UT
800 AM MST MON FEB 20 2017

UTZ001>011-023>025-201600-

NORTHERN UTAH

CITY           SKY/WX    TMP DP  RH WIND       PRES   REMARKS
BRIGHAM CITY     N/A     46  34  62 S21       29.99S
HILL AFB       CLOUDY    45  33  64 S18       30.00R
LOGAN          CLOUDY    41  34  76 E8        29.98R
OGDEN          CLOUDY    45  34  65 S16       30.00R
SALT LAKE CITY MOCLDY    47  34  60 S16G24    30.00S
TOOELE VALLEY  MOCLDY    46  34  61 S25G31    30.00R
WENDOVER       PTCLDY    37  30  75 NE12      29.96S WCI  30
HEBER CITY     MOCLDY    37  30  75 SE3       30.03F
WEST JORDAN    PTCLDY    46  41  84 S20G25    30.03R

$$

UTZ011>015-024>027-201600-

CENTRAL/NORTHEAST UTAH

CITY           SKY/WX    TMP DP  RH WIND       PRES   REMARKS
PROVO AIRPORT  MOCLDY    44  33  65 VRB5      30.07F
MOAB/CANYONLAN PTCLDY    37  37 100 NE3       30.13R FOG
DELTA          PTCLDY    41  32  70 S9        30.08R
PRICE          FOG       34  34 100 SE3       30.12R VSB 1/4
RICHFIELD      CLEAR     34  30  86 CALM      30.13R
ROOSEVELT      CLOUDY    32  30  93 CALM      30.14R
VERNAL         CLOUDY    33  30  88 CALM      30.12R

$$

UTZ013>016-019>022-027-201600-

SOUTHERN UTAH

CITY           SKY/WX    TMP DP  RH WIND       PRES   REMARKS
BRYCE CANYON   CLOUDY    25  23  92 CALM      30.15S
CEDAR CITY     MOCLDY    38  36  92 S6        30.11R WCI  33
MILFORD        MOCLDY    40  35  83 S10       30.09R WCI  33
ST GEORGE      CLOUDY    47  44  90 NW5       30.16R
HANKSVILLE     CLOUDY    30  30 100 CALM      30.18R VSB<1/4
KANAB          CLOUDY    41  39  93 S3        30.20S
BLANDING       PTSUNNY   33  33  97 N5        30.26R WCI  29

$$

REGIONAL REPORTS     COLORADO/ARIZONA

CITY           SKY/WX    TMP DP  RH WIND       PRES   REMARKS
CRAIG, CO      CLOUDY    25  23  92 CALM      30.12R FOG
GRAND JUNCTION CLOUDY    39  38  96 SE8       30.15R WCI  33
RIFLE, CO      PTSUNNY   37  33  85 E6        30.15R WCI  32
MONTROSE, CO   MOSUNNY   32  30  92 S7        30.21R WCI  26
CORTEZ, CO     MOSUNNY   33  32  96 NE8       30.19R WCI  26
COLORADO CITY  CLOUDY    43  41  93 CALM      30.18S
PAGE, AZ       PTCLDY    40  30  67 S3        30.16R
GRAND CANYON   CLOUDY    35  34  96 SW5       30.22R WCI  31
KINGMAN, AZ    CLOUDY    45  40  82 CALM      30.19R
FLAGSTAFF, AZ  CLOUDY    33  29  85 W3        30.22R

$$

REGIONAL REPORTS    NEVADA/IDAHO/WYOMING

CITY           SKY/WX    TMP DP  RH WIND       PRES   REMARKS
LAS VEGAS, NV  CLOUDY    56  43  61 S8        30.10R
ELY, NY        CLOUDY    37  31  78 S8        30.05R WCI  31
ELKO, NV       CLOUDY    43  32  65 S16G29    29.93R
POCATELLO, ID  CLOUDY    43  33  68 S20G26    29.87R
BURLEY, ID     CLOUDY    44  33  65 S18G28    29.82F
FORT BRIDGER,    N/A     28  22  76 W3        30.01F
EVANSTON, WY   CLOUDY    26  22  84 S9        30.01R WCI  17
ROCK SPRINGS,  CLOUDY    31  24  75 NW5       30.02R WCI  26
KEMMERER, WY     N/A     30  27  86 SW6       30.02  WCI  24

$$




USA.gov is the U.S. government's official web portal to all federal, state and local government web resources and services.